EW9154 Weather Reports


Display with metric or nautical units.
time (UTC)temp
F
wind
direction
speed
MPH
gust
MPH
rain 1hr
in
rain 24hr
in
rain mn
in
humidity
%
barometer
mb
20260503001800 64 321 1.0 13.0 0.00 0.00 0.00 36 1024.5
20260503001235 64 210 1.0 13.0 0.00 0.00 0.00 35 1024.3
20260503000705 64 196 1.0 9.0 0.00 0.00 0.00 36 1024.4
20260503000204 64 229 0.0 9.0 0.00 0.00 0.00 35 1024.8
20260502235638 65 215 0.0 0.0 0.00 0.00 0.00 35 1024.5
20260502235142 65 219 0.0 3.0 0.00 0.00 0.00 34 1024.4
20260502234613 65 238 0.0 15.0 0.00 0.00 0.00 34 1024.4
20260502234113 65 324 2.0 15.0 0.00 0.00 0.00 33 1024.4
20260502233544 65 229 1.0 19.0 0.00 0.00 0.00 34 1024.5
20260502233043 66 226 0.0 19.0 0.00 0.00 0.00 32 1024.5
20260502232540 66 233 0.0 10.0 0.00 0.00 0.00 32 1024.4
20260502232044 66 227 1.0 10.0 0.00 0.00 0.00 32 1024.4
20260502231540 66 225 1.0 11.0 0.00 0.00 0.00 31 1024.5
20260502231038 66 202 1.0 11.0 0.00 0.00 0.00 30 1024.6
20260502230510 66 215 1.0 12.0 0.00 0.00 0.00 31 1024.6
20260502230008 66 237 1.0 12.0 0.00 0.00 0.00 31 1024.6
20260502225452 66 209 0.0 2.0 0.00 0.00 0.00 30 1024.6
20260502224954 66 235 0.0 4.0 0.00 0.00 0.00 30 1024.8
20260502224425 67 221 0.0 5.0 0.00 0.00 0.00 30 1024.8
20260502223923 67 186 0.0 5.0 0.00 0.00 0.00 30 1024.9
20260502223420 67 216 0.0 9.0 0.00 0.00 0.00 30 1024.9
20260502222918 67 203 0.0 9.0 0.00 0.00 0.00 29 1025.0
20260502222352 67 215 1.0 9.0 0.00 0.00 0.00 29 1025.0
20260502222111 68 223 1.0 9.0 0.00 0.00 0.00 30 1025.0
20260502221338 68 223 2.0 10.0 0.00 0.00 0.00 29 1025.1
20260502220833 68 225 1.0 10.0 0.00 0.00 0.00 29 1025.2
20260502220332 68 172 1.0 16.0 0.00 0.00 0.00 30 1025.2
20260502215817 68 221 2.0 16.0 0.00 0.00 0.00 29 1025.2
20260502215322 68 232 2.0 13.0 0.00 0.00 0.00 29 1025.4
20260502214802 69 223 1.0 13.0 0.00 0.00 0.00 28 1025.4
20260502214256 69 175 1.0 13.0 0.00 0.00 0.00 27 1025.4
20260502213727 69 223 1.0 9.0 0.00 0.00 0.00 28 1025.6
20260502213239 69 250 1.0 13.0 0.00 0.00 0.00 28 1025.7
20260502212721 68 239 1.0 16.0 0.00 0.00 0.00 29 1025.8
20260502212220 68 206 3.0 16.0 0.00 0.00 0.00 28 1025.8
20260502211659 67 222 4.0 15.0 0.00 0.00 0.00 29 1026.0
20260502211117 68 232 2.0 14.0 0.00 0.00 0.00 28 1026.0
20260502210617 68 218 3.0 13.0 0.00 0.00 0.00 28 1026.2
20260502210047 67 231 4.0 23.0 0.00 0.00 0.00 30 1026.2
20260502205815 67 221 4.0 23.0 0.00 0.00 0.00 31 1026.2
20260502205019 66 209 1.0 14.0 0.00 0.00 0.00 30 1026.4
20260502204521 66 230 1.0 10.0 0.00 0.00 0.00 30 1026.5
20260502204017 66 221 2.0 10.0 0.00 0.00 0.00 29 1026.6
20260502203737 67 231 2.0 12.0 0.00 0.00 0.00 29 1026.7
20260502203004 67 184 2.0 13.0 0.00 0.00 0.00 29 1026.8
20260502202739 67 197 3.0 13.0 0.00 0.00 0.00 28 1026.8
20260502201942 67 260 2.0 11.0 0.00 0.00 0.00 28 1026.9
20260502201425 66 204 2.0 10.0 0.00 0.00 0.00 30 1027.0
20260502200928 66 220 2.0 12.0 0.00 0.00 0.00 30 1027.3
20260502200627 65 275 2.0 22.0 0.00 0.00 0.00 29 1027.4
20260502200125 65 221 2.0 18.0 0.00 0.00 0.00 30 1027.5
20260502195352 65 235 3.0 15.0 0.00 0.00 0.00 31 1027.6
20260502194823 65 234 3.0 15.0 0.00 0.00 0.00 29 1027.8
20260502194318 65 233 3.0 15.0 0.00 0.00 0.00 29 1027.8
20260502193816 65 216 1.0 14.0 0.00 0.00 0.00 28 1028.0
20260502193252 66 223 1.0 12.0 0.00 0.00 0.00 30 1028.1
20260502192747 65 198 2.0 14.0 0.00 0.00 0.00 30 1028.1
20260502192248 65 202 3.0 14.0 0.00 0.00 0.00 29 1028.2
20260502191722 65 227 1.0 10.0 0.00 0.00 0.00 30 1028.3
20260502191206 64 254 1.0 9.0 0.00 0.00 0.00 30 1028.4
20260502190622 63 216 1.0 9.0 0.00 0.00 0.00 29 1028.6
20260502190327 64 222 1.0 10.0 0.00 0.00 0.00 29 1028.7
20260502185805 64 246 1.0 10.0 0.00 0.00 0.00 30 1028.8
20260502185649 63 214 2.0 11.0 0.00 0.00 0.00 31 1028.7
20260502184510 63 230 3.0 17.0 0.00 0.00 0.00 31 1029.0
20260502183941 63 265 1.0 14.0 0.00 0.00 0.00 30 1029.1
20260502183647 63 211 1.0 14.0 0.00 0.00 0.00 32 1029.2
20260502182914 62 273 4.0 25.0 0.00 0.00 0.00 31 1029.2
20260502182345 62 261 3.0 25.0 0.00 0.00 0.00 32 1029.4
20260502181835 62 210 1.0 10.0 0.00 0.00 0.00 31 1029.4
20260502181341 62 215 1.0 9.0 0.00 0.00 0.00 30 1029.7
20260502181335 62 205 1.0 9.0 0.00 0.00 0.00 31 1029.6
20260502180326 62 223 1.0 8.0 0.00 0.00 0.00 30 1029.8
20260502170149 59 205 2.0 11.0 0.00 0.00 0.00 33 1030.8
20260502170144 59 214 2.0 12.0 0.00 0.00 0.00 32 1030.7
20260502164103 58 196 1.0 11.0 0.00 0.00 0.00 34 1031.0
20260502163816 57 236 1.0 11.0 0.00 0.00 0.00 36 1031.0
20260502163242 57 214 2.0 12.0 0.00 0.00 0.00 35 1031.1
20260502162443 57 212 2.0 12.0 0.00 0.00 0.00 35 1031.2
20260502161924 57 213 1.0 9.0 0.00 0.00 0.00 37 1031.2
20260502161406 57 182 1.0 10.0 0.00 0.00 0.00 36 1031.3
20260502160903 56 225 1.0 10.0 0.00 0.00 0.00 37 1031.4
20260502160406 56 235 2.0 10.0 0.00 0.00 0.00 37 1031.4
20260502152325 54 215 1.0 11.0 0.00 0.00 0.00 41 1031.7
20260502151822 54 233 1.0 11.0 0.00 0.00 0.00 42 1031.8
20260502151256 54 248 0.0 5.0 0.00 0.00 0.00 43 1031.8
20260502151116 53 219 0.0 6.0 0.00 0.00 0.00 46 1032.1
20260502150754 54 239 1.0 7.0 0.00 0.00 0.00 44 1032.0
20260502150500 53 240 1.0 7.0 0.00 0.00 0.00 45 1032.1
20260502130249 42 219 0.0 2.0 0.00 0.00 0.00 62 1032.4
20260502123635 40 221 0.0 0.0 0.00 0.00 0.00 68 1032.4
20260502123133 40 216 0.0 2.0 0.00 0.00 0.00 68 1032.4
20260502122616 39 215 0.0 7.0 0.00 0.00 0.00 68 1032.3
20260502122119 39 212 0.0 7.0 0.00 0.00 0.00 68 1032.3
20260502121554 39 212 0.0 7.0 0.00 0.00 0.00 68 1032.3
20260502121049 39 223 0.0 7.0 0.00 0.00 0.00 69 1032.4
20260502120548 38 223 0.0 1.0 0.00 0.00 0.00 69 1032.4
20260502115503 38 226 0.0 0.0 0.00 0.00 0.00 70 1032.3
20260502115007 38 225 0.0 0.0 0.00 0.00 0.00 70 1032.2
20260502114438 38 227 0.0 0.0 0.00 0.00 0.00 69 1032.2
20260502113937 38 227 0.0 0.0 0.00 0.00 0.00 69 1032.1
20260502113411 38 227 0.0 0.0 0.00 0.00 0.00 69 1032.2
20260502112845 38 227 0.0 0.0 0.00 0.00 0.00 69 1032.1
20260502112327 38 227 0.0 0.0 0.00 0.00 0.00 68 1032.1
20260502111831 38 227 0.0 0.0 0.00 0.00 0.00 68 1032.1
20260502111302 38 227 0.0 0.0 0.00 0.00 0.00 67 1032.0
20260502110800 38 227 0.0 0.0 0.00 0.00 0.00 67 1032.1
20260502110236 38 227 0.0 0.0 0.00 0.00 0.00 67 1032.1
20260502105722 38 229 0.0 0.0 0.00 0.00 0.00 67 1032.1
20260502105222 38 214 0.0 0.0 0.00 0.00 0.00 66 1032.1
20260502104712 39 213 0.0 0.0 0.00 0.00 0.00 66 1032.1
20260502104211 39 212 0.0 0.0 0.00 0.00 0.00 66 1032.2
20260502103642 39 209 0.0 4.0 0.00 0.00 0.00 66 1032.1
20260502103140 39 215 0.0 4.0 0.00 0.00 0.00 66 1032.1
20260502102619 39 214 0.0 3.0 0.00 0.00 0.00 65 1032.1
20260502102119 39 203 0.0 3.0 0.00 0.00 0.00 65 1032.1
20260502101619 39 202 0.0 3.0 0.00 0.00 0.00 65 1032.1
20260502101114 39 202 0.0 3.0 0.00 0.00 0.00 65 1032.1
20260502100840 39 213 0.0 0.0 0.00 0.00 0.00 64 1032.1
20260502100309 39 216 0.0 1.0 0.00 0.00 0.00 64 1032.0
20260502091359 40 209 0.0 1.0 0.00 0.00 0.00 62 1032.0
20260502090857 40 207 0.0 1.0 0.00 0.00 0.00 62 1031.8
20260502090352 40 207 0.0 0.0 0.00 0.00 0.00 62 1032.0
20260502071410 42 235 0.0 0.0 0.00 0.00 0.00 55 1032.3
20260502070902 42 235 0.0 0.0 0.00 0.00 0.00 55 1032.3
20260502070402 42 235 0.0 0.0 0.00 0.00 0.00 55 1032.3
20260502065844 42 235 0.0 0.0 0.00 0.00 0.00 55 1032.3
20260502065343 42 235 0.0 0.0 0.00 0.00 0.00 55 1032.4
20260502064847 42 238 0.0 0.0 0.00 0.00 0.00 54 1032.4
20260502064843 42 238 0.0 0.0 0.00 0.00 0.00 54 1032.4
20260502063839 42 238 0.0 2.0 0.00 0.00 0.00 54 1032.4
20260502063610 42 238 0.0 2.0 0.00 0.00 0.00 54 1032.4
20260502062838 42 250 0.0 0.0 0.00 0.00 0.00 54 1032.4
20260502062610 42 250 0.0 3.0 0.00 0.00 0.00 54 1032.5
20260502061821 42 250 0.0 3.0 0.00 0.00 0.00 53 1032.5
20260502061322 42 250 0.0 0.0 0.00 0.00 0.00 53 1032.4
20260502060812 42 250 0.0 0.0 0.00 0.00 0.00 53 1032.5
20260502060543 42 250 0.0 0.0 0.00 0.00 0.00 53 1032.5
20260502055813 43 250 0.0 0.0 0.00 0.00 0.00 53 1032.5
20260502055250 43 250 0.0 0.0 0.00 0.00 0.00 53 1032.5
20260502054726 43 250 0.0 0.0 0.00 0.00 0.00 53 1032.5
20260502054228 43 250 0.0 0.0 0.00 0.00 0.00 53 1032.5
20260502053721 43 250 0.0 0.0 0.00 0.00 0.00 53 1032.4
20260502053222 43 250 0.0 0.0 0.00 0.00 0.00 53 1032.5
20260502052707 43 250 0.0 0.0 0.00 0.00 0.00 53 1032.4
20260502052204 43 250 0.0 0.0 0.00 0.00 0.00 52 1032.5
20260502051704 43 250 0.0 0.0 0.00 0.00 0.00 52 1032.5
20260502051157 44 250 0.0 0.0 0.00 0.00 0.00 51 1032.4
20260502050652 44 250 0.0 0.0 0.00 0.00 0.00 51 1032.4
20260502050150 44 250 0.0 0.0 0.00 0.00 0.00 51 1032.4
20260502045626 44 250 0.0 0.0 0.00 0.00 0.00 50 1032.4
20260502045111 44 250 0.0 0.0 0.00 0.00 0.00 50 1032.4
20260502044551 44 250 0.0 0.0 0.00 0.00 0.00 50 1032.3
20260502044049 44 250 0.0 0.0 0.00 0.00 0.00 49 1032.4
20260502043552 44 250 0.0 0.0 0.00 0.00 0.00 50 1032.4
20260502043014 44 250 0.0 0.0 0.00 0.00 0.00 49 1032.4
20260502042458 44 250 0.0 0.0 0.00 0.00 0.00 49 1032.4
20260502042232 44 250 0.0 0.0 0.00 0.00 0.00 49 1032.3
20260502041956 44 250 0.0 0.0 0.00 0.00 0.00 49 1032.4
20260502040955 44 250 0.0 0.0 0.00 0.00 0.00 49 1032.4
20260502040441 45 250 0.0 0.0 0.00 0.00 0.00 49 1032.4
20260502040214 45 250 0.0 0.0 0.00 0.00 0.00 48 1032.4
20260502035434 45 250 0.0 0.0 0.00 0.00 0.00 48 1032.4
20260502034935 45 250 0.0 0.0 0.00 0.00 0.00 48 1032.4
20260502034431 46 250 0.0 0.0 0.00 0.00 0.00 47 1032.4
20260502033929 46 250 0.0 0.0 0.00 0.00 0.00 47 1032.4
20260502033409 46 250 0.0 0.0 0.00 0.00 0.00 45 1032.5
20260502032856 46 250 0.0 0.0 0.00 0.00 0.00 45 1032.5
20260502032400 46 250 0.0 0.0 0.00 0.00 0.00 45 1032.5
20260502032103 46 250 0.0 0.0 0.00 0.00 0.00 44 1032.5
20260502031330 46 250 0.0 0.0 0.00 0.00 0.00 44 1032.5
20260502030829 47 250 0.0 0.0 0.00 0.00 0.00 44 1032.6
20260502030311 47 250 0.0 0.0 0.00 0.00 0.00 44 1032.6
20260502025753 47 250 0.0 0.0 0.00 0.00 0.00 44 1032.5
20260502025232 47 250 0.0 0.0 0.00 0.00 0.00 43 1032.5
20260502024733 47 250 0.0 0.0 0.00 0.00 0.00 43 1032.4
20260502024206 47 250 0.0 0.0 0.00 0.00 0.00 42 1032.5
20260502023924 48 250 0.0 0.0 0.00 0.00 0.00 42 1032.4
20260502023143 48 250 0.0 0.0 0.00 0.00 0.00 41 1032.4
20260502022644 48 250 0.0 0.0 0.00 0.00 0.00 40 1032.4
20260502022144 48 250 0.0 0.0 0.00 0.00 0.00 41 1032.4
20260502021625 48 250 0.0 0.0 0.00 0.00 0.00 40 1032.3
20260502021123 48 250 0.0 0.0 0.00 0.00 0.00 39 1032.4
20260502020603 49 250 0.0 0.0 0.00 0.00 0.00 38 1032.3
20260502020559 49 250 0.0 0.0 0.00 0.00 0.00 39 1032.3
20260502015552 49 250 0.0 0.0 0.00 0.00 0.00 38 1032.2
20260502015325 49 250 0.0 0.0 0.00 0.00 0.00 38 1032.2
20260502014525 49 250 0.0 0.0 0.00 0.00 0.00 38 1032.1
20260502014028 49 250 0.0 0.0 0.00 0.00 0.00 39 1032.0
20260502013506 50 250 0.0 0.0 0.00 0.00 0.00 38 1032.0
20260502013006 50 250 0.0 0.0 0.00 0.00 0.00 38 1031.8
20260502012503 50 250 0.0 0.0 0.00 0.00 0.00 38 1031.8
20260502011933 51 250 0.0 0.0 0.00 0.00 0.00 37 1031.8
20260502011435 51 250 0.0 0.0 0.00 0.00 0.00 37 1031.8
20260502010914 51 250 0.0 0.0 0.00 0.00 0.00 36 1031.7
20260502010335 51 250 0.0 0.0 0.00 0.00 0.00 36 1031.7
20260502005811 52 250 0.0 0.0 0.00 0.00 0.00 36 1031.8
20260502005254 52 250 0.0 0.0 0.00 0.00 0.00 35 1031.7
20260502004725 52 250 0.0 8.0 0.00 0.00 0.00 35 1031.7
20260502004223 52 250 0.0 8.0 0.00 0.00 0.00 34 1031.7
20260502003934 52 262 0.0 3.0 0.00 0.00 0.00 33 1031.7
20260502003132 53 200 0.0 1.0 0.00 0.00 0.00 33 1031.7
20260502002636 53 200 0.0 1.0 0.00 0.00 0.00 32 1031.7